Location: Azul
(36.7830°S, 59.8500°W)
Time: 17:14:01
(UTC-03:00)

BEESAT - Pass Details

Date: 29 October 2021
Orbit: 700 x 707 km, 98.6° (Epoch: 06 December)

Event Time Altitude Azimuth Distance (km) Brightness Sun altitude
Rises 20:51:19 0° 339° (NNW) 3,091 ? -15.7°
Reaches altitude 10° 20:54:07 10° 321° (NW) 2,183 ? -16.2°
Maximum altitude 20:57:36 20° 274° (W) 1,622 ? -16.7°
Drops below altitude 10° 21:01:08 10° 227° (SW) 2,207 ? -17.3°
Sets 21:03:59 0° 210° (SSW) 3,136 ? -17.8°
